Regional Weather Roundup
Issued by NWS Newport/Morehead, NC

Current Version | Previous Version | Text Only | Print | Product List | Glossary Off
Versions: 1 2 3 4 5 6 7 8 9 10 11 12 13 14 15 16 17 18 19 20 21 22 23 24 25 26 27 28 29 30 31 32 33 34 35 36 37 38 39 40 41 42 43 44 45 46 47 48 49 50
000 ASUS42 KMHX 181522 RWRMHX WEATHER ROUNDUP FOR EASTERN NORTH CAROLINA NATIONAL WEATHER SERVICE NEWPORT/MOREHEAD CITY NC 1100 AM EDT THU SEP 18 2014 NOTE: "FAIR" INDICATES FEW OR NO CLOUDS BELOW 12,000 FEET WITH NO SIGNIFICANT WEATHER AND/OR OBSTRUCTIONS TO VISIBILITY NCZ015>017-031-032-045>047-102-103-181600- NORTH COAST CITY SKY/WX TMP DP RH WIND PRES REMARKS EDENTON SUNNY 75 60 58 E7 30.01S ELIZABETH CITY SUNNY 75 57 53 NE10 30.01R KITTY HAWK SUNNY 74 54 48 N6 30.00S MANTEO SUNNY 74 56 53 NE10 30.01S $$ NCZ045>047-081-094-103-104-181600- CENTRAL COAST CITY SKY/WX TMP DP RH WIND PRES REMARKS FRISCO SUNNY 74 57 55 NE13G23 29.98R SWANQUARTER N/A 75 N/A N/A E9G15 29.97R $$ NCZ095-097-098-100-101-181600- SOUTHERN COAST CITY SKY/WX TMP DP RH WIND PRES REMARKS BEAUFORT SUNNY 78 65 63 NE13 29.98R CEDAR ISLAND N/A 75 N/A N/A NE16G22 30.03S JACKSONVILLE SUNNY 77 63 61 NE10 29.98R NEWPORT NOT AVBL PINEY ISLAND SUNNY 77 63 61 NE13G21 29.99R WILMINGTON SUNNY 78 68 71 E6 29.97R $$ NCZ011>013-027>030-043-044-078>080-089-090>093-098-181600- COASTAL PLAIN CITY SKY/WX TMP DP RH WIND PRES REMARKS AHOSKIE SUNNY 72 58 60 NE5 30.02S CLINTON SUNNY 75 64 68 E3 30.01R ELIZABETHTOWN MOSUNNY 77 66 68 N3 29.99S GOLDSBORO MOSUNNY 75 64 67 E7 29.99S GREENVILLE SUNNY 75 61 60 NE7 30.03S HAVELOCK MOSUNNY 77 60 55 NE14 29.99R KENANSVILLE SUNNY 76 60 57 NE3 30.01R KINSTON SUNNY 75 59 57 NE9G16 30.01S NEW BERN SUNNY 78 60 53 NE10 30.01R RICHLANDS SUNNY 77 61 57 NE8 29.99S ROANOKE RAPIDS NOT AVBL ROCKY MOUNT SUNNY 75 59 57 E6 30.02R WASHINGTON SUNNY 75 60 60 NE8 30.01S WHITEVILLE CLOUDY 74 67 79 N3 29.98S $$ AMZ130-135-150-152-154-156-158-170-250-252-270-ANZ085-086-088-633-658-670-181600- MARINE OBSERVATIONS STATION/POSITION TIME TEMP WIND PRES WAVE SWELL AIR SEA DIR/SP/G HT/PER HT/PER (UTC) (F) (DEG/KT/KT) (MB) (FT/S) (FT/S) CHESAPEAKE LIGHT 1500 70 40/ 14/ 16 1016.8 BUOY 44014 1500 71 77 20/ 16/ 21 1015.1 4/12 3/12 DUCK 1500 71 75 30/ 14/ 16 1015.5 2E DUCK 1500 N/A 4/13 2/13 OREGON INLET 1500 73 74 20/ 14/ 17 1015.7 BUOY 44095 1500 76 N/A 5/13 3/13 20E OREGON INLET NOT AVBL HATTERAS CG 1500 74 76 30/ 13/ 19 1015.7 DIAMOND BUOY 1500 75 10/ 17/ 21 1014.6 6/13 3/13 CAPE LOOKOUT 1500 75 40/ 17/ 19 1015.1 BEAUFORT LAB 1500 76 78 30/ 10/ 16 1014.7 30 SE NEW RIVER 1500 77 82 40/ 17/ 19 1014.5 4/14 3/14 5 SE WRIGHTSVILL 1500 73 81 60/ 14/ 16 N/A BUOY 41002 1418 78 82 360/ 8/ 10 1014.1 4/11 3/11 BUOY 41004 1500 80 83 360/ 4/ 6 1014.1 3/10 3/10 $$

USA.gov is the U.S. government's official web portal to all federal, state and local government web resources and services.